Zurück zum Katalog

CZ-6A DEB

AktivPO
NORAD 61143·DEBRIS·🇨🇳 China

Gestartet Aug 6, 2024 von Taiyuan Satellite Launch Center

Loading…

Nächste Überflüge (nächste 24 Stunden)

TLE

AktuellSource: Space-Track

Epoche: Sep 14, 2026, 11:20 UTC

1 61143U 24140QM  26257.47230299  .00001333  00000-0  27302-3 0  9991
2 61143  89.1301 272.0607 0082384 298.3510  60.9410 14.58126289109552

Verfolge CZ-6A DEB in Echtzeit mit AllMySat

Download on the App Store